Regional Weather Roundup
Issued by NWS Sterling, VA

Home | Current Version | Previous Version | Text Only | Print | Product List | Glossary Off
Versions: 1 2 3 4 5 6 7 8 9 10 11 12 13 14 15 16 17 18 19 20 21 22 23 24 25 26 27 28 29 30 31 32 33 34 35 36 37 38 39 40 41 42 43 44 45 46 47 48 49

000
ASUS41 KLWX 240610
RWRLWX

REGIONAL WEATHER ROUNDUP
NATIONAL WEATHER SERVICE BALTIMORE MD/WASHINGTON DC
100 AM EST WED DEC 24 2014

Note: "FAIR" indicates few or no clouds below 12,000 feet
with no significant weather and/or obstructions to visibility.
 TC=TEMPERATURE CELSIUS

 * =Non NWS site. Station does not report precipitation (e.g. rain,
    snow, etc.), thunder, or fog.

DCZ001-MDZ009-015-VAZ040>042-051-053>054-240700-
WASHINGTON METRO

CITY           SKY/WX    TMP DP  RH WIND       PRES   REMARKS
WASHINGTON NAT HVY RAIN  48  44  86 SW5       30.03R FOG
DULLES         HVY RAIN  42  41  96 CALM      30.02S VSB 1/2
FT BELVOIR     RAIN      45  43  93 NW1       30.01F FOG
QUANTICO       LGT RAIN  44  42  93 N3        30.02F
COLLEGE PARK*  CLOUDY    46  46 100 SW3       30.02R
LEESBURG*      LGT RAIN  43  43 100 W3        30.03S
MANASSAS*      CLOUDY    43  43 100 CALM      30.02S
GAITHERSBURG*  CLOUDY    45  43  93 CALM      30.02F

$$

MDZ006>007-011-014-240700-
BALTIMORE METRO

CITY           SKY/WX    TMP DP  RH WIND       PRES   REMARKS
BWI AIRPORT    LGT RAIN  46  46 100 NE6       30.01F VSB 1/2
MD SCIENCE CTR   N/A     44  44 100 MISG      30.03S
MARTIN STATE   LGT RAIN  45  45 100 CALM      30.04S VSB 1/2
ANNAPOLIS      LGT RAIN  43  42  97 SE3       30.01F VSB 1/2
FORT MEADE*    CLOUDY    45  45 100 E3        30.03F

$$

MDZ012-015-019>023-240700-
MARYLAND EASTERN SHORE

CITY           SKY/WX    TMP DP  RH WIND       PRES   REMARKS
OCEAN CITY     CLOUDY    47  46  97 CALM      30.04R FOG
SALISBURY      LGT RAIN  51  48  89 E6        30.03R FOG
BAY BRIDGE AP* LGT RAIN  45  45 100 CALM      30.02F VSB 1/2
CAMBRIDGE*     CLOUDY    48  46  93 CALM      30.01S VSB 1/4
EASTON*        LGT RAIN  49  49 100 CALM      30.06S VSB 1/4

$$

MDZ017>025-240700-
SOUTHERN MARYLAND

CITY           SKY/WX    TMP DP  RH WIND       PRES   REMARKS
PATUXENT RIVER RAIN      44  43  96 E5        30.00F FOG
ST INIGOES     LGT RAIN  46  42  86 E3        30.01S FOG
LEONARDTOWN*   CLOUDY    45  43  93 CALM      30.02F

$$

MDZ003>005-240700-
NORTH CENTRAL MARYLAND

CITY           SKY/WX    TMP DP  RH WIND       PRES   REMARKS
FREDERICK*     RAIN      45  41  87 CALM      30.03F
HAGERSTOWN APT LGT RAIN  40  39  97 CALM      29.99F FOG
WESTMINSTER*   LGT RAIN  48  46  93 SE5       29.99F

$$

MDZ501>502-240700-
WESTERN MARYLAND

CITY           SKY/WX    TMP DP  RH WIND       PRES   REMARKS
OAKLAND*       FOG       37 N/A N/A SE10      29.88F VSB 1/4
CUMBERLAND*    CLOUDY    37  37 100 NE3       30.01F VSB 3/4

$$

VAZ025>031-240700-
SHENANDOAH VALLEY

CITY           SKY/WX    TMP DP  RH WIND       PRES   REMARKS
WINCHESTER*    RAIN      41  36  81 CALM      29.98F
FRONT ROYAL*   CLOUDY    37  37 100 CALM      29.97F
LURAY*         RAIN      41  41 100 CALM      29.97F
NEW MARKET*    CLOUDY    39  38  99 CALM      29.97F
STAUNTON*      RAIN      42  40  94 CALM      29.98S
WAYNESBORO*    CLOUDY    45  44  96 E6        29.95S

$$

WVZ021-048>050-054>055-240700-
EASTERN WEST VIRGINIA PANHANDLE

CITY           SKY/WX    TMP DP  RH WIND       PRES   REMARKS
MARTINSBURG    RAIN      40  37  89 CALM      30.00F FOG
PETERSBURG*    LGT RAIN  37  37 100 CALM      29.98F

$$

VAZ036>039-050-240700-
CENTRAL FOOTHILLS

CITY           SKY/WX    TMP DP  RH WIND       PRES   REMARKS
CHARLOTTESVILL LGT RAIN  43  42  97 CALM      29.98F FOG
CULPEPER*      RAIN      45  45 100 CALM      30.01F
ORANGE*        LGT RAIN  45  43  93 CALM      30.00F
GORDONSVILLE*  CLOUDY    42  42  99 CALM      29.98F
WARRENTON*     LGT RAIN  44  44 100 CALM      30.00F

$$

VAZ055>057-240700-
NORTH AND CENTRAL PIEDMONT

CITY           SKY/WX    TMP DP  RH WIND       PRES   REMARKS
FREDERICKSBRG* RAIN      45  45 100 CALM      30.00F
STAFFORD*      RAIN      44  44 100 CALM      30.04F

$$

NCZ024-NYZ072-PAZ021-071-VAZ022-071-240700-
OTHER REGIONAL OBSERVATIONS

CITY           SKY/WX    TMP DP  RH WIND       PRES   REMARKS
NEW YORK CITY  CLOUDY    45  43  93 E9        30.08F
PHILADELPHIA   CLOUDY    47  45  93 CALM      30.06S FOG
PITTSBURGH     LGT RAIN  47  44  90 E8        29.81F
ROANOKE        FOG       42  41  96 CALM      29.98F VSB 1
RICHMOND       LGT RAIN  46  43  89 CALM      30.00S FOG
RALEIGH        CLOUDY    48  45  89 E6        29.92F VSB 3/4

$$

ANZ530>537-240700-
MARINE OBSERVATIONS

STATION/POSITION TIME  TEMP    WIND        PRES
                       AIR SEA DIR/SP/G
                 (UTC) (F)     (DEG/KT/KT) (MB)
THOMAS PT LIGHT  0600   45 41  120/  6/  6 1017.5F
BALT KEY BRIDGE  0600   44      80/  3/  3 1016.5F
COVE POINT       0600   43      90/  6/  7 1016.0F
LEWISETTA        0600   43 41  110/  6/  6 1015.9S
SOLOMONS ISLAND  0600      43                N/A
PINEY POINT      0600          130/  8/  8   N/A

$$



USA.gov is the U.S. government's official web portal to all federal, state and local government web resources and services.